TimeCST,TemperatureF,Dew PointF,Humidity,Sea Level PressureIn,VisibilityMPH,Wind Direction,Wind SpeedMPH,Gust SpeedMPH,PrecipitationIn,Events,Conditions,WindDirDegrees,DateUTC
12:15 AM,-4.0,-7.6,85,30.31,-9999.0,Calm,Calm,-,N/A,,Clear,0,2012-12-26 06:15:00
12:35 AM,-7.6,-14.8,71,30.29,-9999.0,North,5.8,-,N/A,,Clear,360,2012-12-26 06:35:00
12:55 AM,-5.8,-13.0,71,30.30,-9999.0,Calm,Calm,-,N/A,,Clear,0,2012-12-26 06:55:00
1:15 AM,-5.8,-11.2,77,30.29,-9999.0,Calm,Calm,-,N/A,,Clear,0,2012-12-26 07:15:00
1:35 AM,-5.8,-9.4,84,30.30,-9999.0,Calm,Calm,-,N/A,,Clear,0,2012-12-26 07:35:00
1:55 AM,-5.8,-11.2,77,30.30,-9999.0,North,3.5,-,N/A,,Clear,350,2012-12-26 07:55:00
2:15 AM,-7.6,-13.0,77,30.30,-9999.0,Calm,Calm,-,N/A,,Clear,0,2012-12-26 08:15:00
2:35 AM,-0.4,-5.8,78,30.30,-9999.0,Calm,Calm,-,N/A,,Unknown,0,2012-12-26 08:35:00
2:55 AM,1.4,-4.0,78,30.31,-9999.0,Calm,Calm,-,N/A,,Clear,0,2012-12-26 08:55:00
3:15 AM,-4.0,-7.6,85,30.30,-9999.0,Calm,Calm,-,N/A,,Clear,0,2012-12-26 09:15:00
3:35 AM,-4.0,-7.6,85,30.31,-9999.0,Calm,Calm,-,N/A,,Mostly Cloudy,0,2012-12-26 09:35:00
3:55 AM,-4.0,-7.6,85,30.29,-9999.0,Calm,Calm,-,N/A,,Overcast,0,2012-12-26 09:55:00
4:15 AM,-0.4,-5.8,78,30.29,-9999.0,Calm,Calm,-,N/A,,Overcast,0,2012-12-26 10:15:00
4:35 AM,1.4,-2.2,85,30.28,-9999.0,Calm,Calm,-,N/A,,Overcast,0,2012-12-26 10:35:00
4:55 AM,3.2,-2.2,78,30.28,-9999.0,Calm,Calm,-,N/A,,Overcast,0,2012-12-26 10:55:00
5:15 AM,3.2,-0.4,85,30.27,-9999.0,Calm,Calm,-,N/A,,Overcast,0,2012-12-26 11:15:00
5:35 AM,5.0,1.4,85,30.27,-9999.0,Calm,Calm,-,N/A,,Overcast,0,2012-12-26 11:35:00
5:55 AM,6.8,3.2,85,30.27,-9999.0,Calm,Calm,-,N/A,,Mostly Cloudy,0,2012-12-26 11:55:00
6:15 AM,6.8,3.2,85,30.27,-9999.0,Calm,Calm,-,N/A,,Unknown,0,2012-12-26 12:15:00
6:35 AM,5.0,1.4,85,30.27,-9999.0,Calm,Calm,-,N/A,,Unknown,0,2012-12-26 12:35:00
6:55 AM,3.2,-0.4,85,30.27,-9999.0,Calm,Calm,-,N/A,,Unknown,0,2012-12-26 12:55:00
7:15 AM,1.4,-2.2,85,30.25,-9999.0,Calm,Calm,-,N/A,,Unknown,0,2012-12-26 13:15:00
7:35 AM,1.4,-4.0,78,30.25,-9999.0,Calm,Calm,-,N/A,,Unknown,0,2012-12-26 13:35:00
7:55 AM,-0.4,-4.0,85,30.24,-9999.0,North,3.5,-,N/A,,Unknown,360,2012-12-26 13:55:00
8:15 AM,1.4,-2.2,85,30.24,-9999.0,Calm,Calm,-,N/A,,Unknown,0,2012-12-26 14:15:00
8:35 AM,1.4,-2.2,85,30.23,-9999.0,Calm,Calm,-,N/A,,Unknown,0,2012-12-26 14:35:00
8:55 AM,1.4,-4.0,78,30.23,-9999.0,North,3.5,-,N/A,,Unknown,350,2012-12-26 14:55:00
9:15 AM,3.2,-0.4,85,30.22,-9999.0,North,3.5,-,N/A,,Unknown,360,2012-12-26 15:15:00
9:35 AM,5.0,1.4,85,30.23,-9999.0,Calm,Calm,-,N/A,,Unknown,0,2012-12-26 15:35:00
9:55 AM,8.6,3.2,79,30.23,-9999.0,Calm,Calm,-,N/A,,Unknown,0,2012-12-26 15:55:00
10:15 AM,10.4,8.6,92,30.23,-9999.0,Calm,Calm,-,N/A,,Unknown,0,2012-12-26 16:15:00
10:35 AM,12.2,8.6,85,30.23,-9999.0,Calm,Calm,-,N/A,,Unknown,0,2012-12-26 16:35:00
10:55 AM,12.2,8.6,85,30.23,-9999.0,North,4.6,-,N/A,,Unknown,350,2012-12-26 16:55:00
11:15 AM,14.0,12.2,93,30.22,-9999.0,NNW,3.5,-,N/A,,Unknown,340,2012-12-26 17:15:00
11:35 AM,17.6,14.0,86,30.22,-9999.0,Calm,Calm,-,N/A,,Unknown,0,2012-12-26 17:35:00
11:55 AM,17.6,14.0,86,30.21,-9999.0,ENE,4.6,-,N/A,,Unknown,60,2012-12-26 17:55:00
12:15 PM,17.6,14.0,86,30.21,-9999.0,Calm,Calm,-,N/A,,Unknown,0,2012-12-26 18:15:00
12:35 PM,19.4,15.8,86,30.20,-9999.0,NE,3.5,-,N/A,,Unknown,50,2012-12-26 18:35:00
12:55 PM,19.4,15.8,86,30.19,-9999.0,Calm,Calm,-,N/A,,Unknown,0,2012-12-26 18:55:00
1:15 PM,19.4,15.8,86,30.19,-9999.0,Calm,Calm,-,N/A,,Unknown,0,2012-12-26 19:15:00
1:35 PM,19.4,14.0,80,30.18,10.0,Calm,Calm,-,N/A,,Clear,0,2012-12-26 19:35:00
1:55 PM,21.2,14.0,74,30.18,10.0,ENE,3.5,-,N/A,,Scattered Clouds,70,2012-12-26 19:55:00
2:15 PM,23.0,14.0,68,30.18,10.0,East,3.5,-,N/A,,Clear,100,2012-12-26 20:15:00
2:35 PM,23.0,14.0,68,30.19,10.0,Calm,Calm,-,N/A,,Clear,0,2012-12-26 20:35:00
2:55 PM,23.0,14.0,68,30.19,10.0,Calm,Calm,-,N/A,,Clear,0,2012-12-26 20:55:00
3:15 PM,21.2,14.0,74,30.19,10.0,North,5.8,-,N/A,,Clear,360,2012-12-26 21:15:00
3:35 PM,21.2,14.0,74,30.19,10.0,North,4.6,-,N/A,,Clear,10,2012-12-26 21:35:00
3:55 PM,21.2,14.0,74,30.20,10.0,North,5.8,-,N/A,,Scattered Clouds,10,2012-12-26 21:55:00
4:15 PM,21.2,14.0,74,30.19,10.0,NNE,3.5,-,N/A,,Overcast,20,2012-12-26 22:15:00
4:35 PM,19.4,14.0,80,30.19,10.0,NE,4.6,-,N/A,,Overcast,40,2012-12-26 22:35:00
4:55 PM,19.4,14.0,80,30.19,10.0,North,3.5,-,N/A,,Scattered Clouds,10,2012-12-26 22:55:00
5:15 PM,19.4,14.0,80,30.19,10.0,Calm,Calm,-,N/A,,Clear,0,2012-12-26 23:15:00
5:35 PM,17.6,12.2,79,30.19,-9999.0,Calm,Calm,-,N/A,,Scattered Clouds,0,2012-12-26 23:35:00
5:55 PM,17.6,12.2,79,30.19,-9999.0,Calm,Calm,-,N/A,,Clear,0,2012-12-26 23:55:00
6:15 PM,14.0,10.4,86,30.19,-9999.0,North,3.5,-,N/A,,Unknown,10,2012-12-27 00:15:00
6:35 PM,14.0,10.4,86,30.19,-9999.0,North,3.5,-,N/A,,Unknown,10,2012-12-27 00:35:00
6:55 PM,14.0,12.2,93,30.19,-9999.0,North,5.8,-,N/A,,Overcast,350,2012-12-27 00:55:00
7:15 PM,17.6,12.2,79,30.19,-9999.0,North,4.6,-,N/A,,Overcast,360,2012-12-27 01:15:00
7:35 PM,17.6,12.2,79,30.18,-9999.0,NNE,3.5,-,N/A,,Overcast,30,2012-12-27 01:35:00
7:55 PM,17.6,12.2,79,30.17,-9999.0,NNE,5.8,-,N/A,,Overcast,30,2012-12-27 01:55:00
8:15 PM,19.4,14.0,80,30.17,-9999.0,NNE,4.6,-,N/A,,Overcast,30,2012-12-27 02:15:00
8:35 PM,19.4,14.0,80,30.17,-9999.0,NE,4.6,-,N/A,,Overcast,40,2012-12-27 02:35:00
8:55 PM,19.4,14.0,80,30.17,-9999.0,NE,5.8,-,N/A,,Overcast,40,2012-12-27 02:55:00
9:15 PM,19.4,14.0,80,30.18,-9999.0,NE,4.6,-,N/A,,Overcast,40,2012-12-27 03:15:00
9:35 PM,19.4,14.0,80,30.18,-9999.0,NNE,3.5,-,N/A,,Overcast,20,2012-12-27 03:35:00
9:55 PM,19.4,14.0,80,30.18,-9999.0,NNE,3.5,-,N/A,,Overcast,20,2012-12-27 03:55:00
10:15 PM,19.4,15.8,86,30.18,-9999.0,Calm,Calm,-,N/A,,Overcast,0,2012-12-27 04:15:00
10:35 PM,19.4,15.8,86,30.17,-9999.0,NNE,4.6,-,N/A,,Overcast,20,2012-12-27 04:35:00
10:55 PM,19.4,15.8,86,30.18,-9999.0,North,3.5,-,N/A,,Overcast,360,2012-12-27 04:55:00
11:15 PM,19.4,15.8,86,30.18,-9999.0,NNE,3.5,-,N/A,,Overcast,20,2012-12-27 05:15:00
11:35 PM,19.4,15.8,86,30.17,10.0,Calm,Calm,-,N/A,Snow,Light Snow,0,2012-12-27 05:35:00
11:55 PM,19.4,15.8,86,30.17,7.0,Calm,Calm,-,N/A,Snow,Light Snow,0,2012-12-27 05:55:00